FW8572 Weather Reports


time (UTC)temp
F
wind
direction
speed
knots
gust
knots
rain 1hr
in
rain 24hr
in
rain mn
in
humidity
%
barometer
mb
20260906161555 76 93 2.6 6.1 0.00 0.00 0.00 73 1023.5
20260906161054 77 39 0.9 2.6 0.00 0.00 0.00 74 1023.6
20260906160553 76 146 0.9 5.2 0.00 0.00 0.00 75 1023.6
20260906160052 77 61 0.0 2.6 0.00 0.00 0.00 74 1023.7
20260906155549 75 176 0.9 0.9 0.00 0.00 0.00 79 1023.7
20260906155046 74 71 4.3 7.0 0.00 0.00 0.00 79 1023.7
20260906154541 74 161 0.9 2.6 0.00 0.00 0.00 80 1023.6
20260906154040 74 151 2.6 2.6 0.00 0.00 0.00 78 1023.7
20260906153539 74 197 0.9 5.2 0.00 0.00 0.00 80 1023.7
20260906153035 73 202 1.7 5.2 0.00 0.00 0.00 81 1023.8
20260906152533 75 175 3.5 5.2 0.00 0.00 0.00 78 1023.6
20260906152033 74 33 0.9 4.3 0.00 0.00 0.00 81 1023.8
20260906151529 74 55 1.7 7.0 0.00 0.00 0.00 79 1023.9
20260906151024 73 185 0.9 5.2 0.00 0.00 0.00 81 1023.7
20260906150519 74 43 1.7 2.6 0.00 0.00 0.00 80 1023.8
20260906150014 74 215 0.9 2.6 0.00 0.00 0.00 81 1023.7
20260906145513 74 177 0.0 1.7 0.00 0.00 0.00 82 1023.5
20260906145008 72 155 1.7 2.6 0.00 0.00 0.00 82 1023.6
20260906144502 72 111 0.0 4.3 0.00 0.00 0.00 84 1023.4
20260906143958 72 197 2.6 4.3 0.00 0.00 0.00 84 1023.5
20260906143453 72 209 0.0 4.3 0.00 0.00 0.00 85 1023.1
20260906142949 71 138 2.6 4.3 0.00 0.00 0.00 83 1023.4
20260906142443 71 162 0.9 4.3 0.00 0.00 0.00 85 1023.4
20260906141938 71 177 2.6 2.6 0.00 0.00 0.00 84 1023.7
20260906141437 72 125 2.6 2.6 0.00 0.00 0.00 83 1023.6
20260906140932 71 151 2.6 2.6 0.00 0.00 0.00 84 1023.4
20260906140427 72 119 0.0 0.9 0.00 0.00 0.00 84 1023.7
20260906135925 71 166 0.0 0.9 0.00 0.00 0.00 85 1023.7
20260906135424 69 159 0.0 4.3 0.00 0.00 0.00 87 1023.6
20260906134920 69 206 0.9 4.3 0.00 0.00 0.00 88 1023.5
20260906134415 69 192 0.9 1.7 0.00 0.00 0.00 88 1023.7
20260906133910 69 146 0.9 1.7 0.00 0.00 0.00 88 1023.8
20260906133405 69 69 0.9 1.7 0.00 0.00 0.00 88 1023.6
20260906132901 68 120 0.9 2.6 0.00 0.00 0.00 90 1023.5
20260906132356 67 109 0.9 0.9 0.00 0.00 0.00 91 1023.5
20260906131852 66 159 0.9 2.6 0.00 0.00 0.00 91 1023.4
20260906131347 66 138 2.6 4.3 0.00 0.00 0.00 92 1023.4
20260906130843 66 130 0.9 1.7 0.00 0.00 0.00 95 1023.3
20260906130342 64 59 0.0 0.9 0.00 0.00 0.00 97 1023.3
20260906125841 64 338 0.9 1.7 0.00 0.00 0.00 97 1023.0
20260906125338 63 58 0.9 1.7 0.00 0.00 0.00 98 1023.3
20260906124833 62 55 0.0 0.9 0.00 0.00 0.00 98 1023.1
20260906124329 62 61 0.9 0.9 0.00 0.00 0.00 98 1023.0
20260906123828 62 324 0.9 1.7 0.00 0.00 0.00 99 1023.1
20260906123323 62 165 0.0 1.7 0.00 0.00 0.00 99 1022.9
20260906122823 61 104 0.0 1.7 0.00 0.00 0.00 99 1023.1
20260906122318 61 78 0.9 0.9 0.00 0.00 0.00 99 1023.0
20260906121815 60 287 0.9 0.9 0.00 0.00 0.00 99 1023.0
20260906121305 60 54 0.0 1.7 0.00 0.00 0.00 99 1022.9
20260906120801 60 27 0.9 2.6 0.00 0.00 0.00 99 1022.7
20260906120257 59 12 0.9 1.7 0.00 0.00 0.00 99 1022.9
20260906115753 59 1 0.9 1.7 0.00 0.00 0.00 99 1022.8
20260906115248 59 33 1.7 2.6 0.00 0.00 0.00 99 1022.7
20260906114747 59 25 2.6 2.6 0.00 0.00 0.00 99 1022.5
20260906114242 59 31 1.7 2.6 0.00 0.00 0.00 99 1022.4
20260906113738 59 26 2.6 2.6 0.00 0.00 0.00 99 1022.4
20260906113237 59 21 1.7 2.6 0.00 0.00 0.00 99 1022.3
20260906112737 59 19 1.7 1.7 0.00 0.00 0.00 99 1022.1
20260906112233 59 335 0.9 1.7 0.00 0.00 0.00 99 1022.3
20260906111733 59 338 1.7 2.6 0.00 0.00 0.00 99 1022.2
20260906111227 59 51 2.6 2.6 0.00 0.00 0.00 99 1022.0
20260906110722 58 21 0.9 2.6 0.00 0.00 0.00 99 1022.0
20260906110218 59 44 0.9 1.7 0.00 0.00 0.00 99 1022.2
20260906105717 59 340 0.9 2.6 0.00 0.00 0.00 99 1022.0
20260906105213 58 30 0.9 1.7 0.00 0.00 0.00 99 1021.8
20260906104713 58 290 0.0 1.7 0.00 0.00 0.00 99 1021.7
20260906104212 58 354 0.9 2.6 0.00 0.00 0.00 99 1022.1
20260906103710 58 25 1.7 1.7 0.00 0.00 0.00 99 1022.0
20260906103205 58 63 1.7 1.7 0.00 0.00 0.00 99 1022.0
20260906102701 58 16 1.7 5.2 0.00 0.00 0.00 99 1022.2
20260906102159 58 18 1.7 1.7 0.00 0.00 0.00 99 1022.1
20260906101654 58 36 0.0 0.0 0.00 0.00 0.00 99 1022.2
20260906101149 58 90 1.7 1.7 0.00 0.00 0.00 99 1022.2
20260906100644 58 353 0.9 1.7 0.00 0.00 0.00 99 1022.1
20260906100139 58 18 1.7 2.6 0.00 0.00 0.00 99 1022.0
20260906095634 58 40 1.7 2.6 0.00 0.00 0.00 99 1022.1
20260906095129 58 31 0.9 0.9 0.00 0.00 0.00 99 1022.1
20260906094628 58 298 0.9 0.9 0.00 0.00 0.00 99 1022.1
20260906094124 59 16 0.0 0.9 0.00 0.00 0.00 99 1021.9
20260906093620 58 41 0.0 0.0 0.00 0.00 0.00 99 1022.0
20260906093114 59 41 0.0 0.9 0.00 0.00 0.00 99 1021.9
20260906092609 59 323 0.9 0.9 0.00 0.00 0.00 99 1021.7
20260906092104 59 34 1.7 1.7 0.00 0.00 0.00 99 1021.9
20260906091601 59 3 0.9 1.7 0.00 0.00 0.00 99 1022.0
20260906091057 59 51 0.9 1.7 0.00 0.00 0.00 99 1021.7
20260906090557 59 39 1.7 2.6 0.00 0.00 0.00 99 1021.8
20260906090057 59 28 1.7 2.6 0.00 0.00 0.00 99 1021.8
20260906085556 59 36 2.6 2.6 0.00 0.00 0.00 99 1021.8
20260906085050 59 28 0.9 1.7 0.00 0.00 0.00 99 1021.8
20260906084545 59 24 1.7 2.6 0.00 0.00 0.00 99 1021.8
20260906084044 59 48 0.9 1.7 0.00 0.00 0.00 99 1021.9
20260906083540 59 16 0.0 0.9 0.00 0.00 0.00 99 1021.6
20260906083039 59 5 0.0 0.0 0.00 0.00 0.00 99 1021.7
20260906082534 59 5 0.0 0.9 0.00 0.00 0.00 99 1021.7
20260906082030 59 270 0.0 0.0 0.00 0.00 0.00 99 1021.7
20260906081526 59 343 0.0 0.9 0.00 0.00 0.00 99 1021.8
20260906081021 59 33 1.7 1.7 0.00 0.00 0.00 99 1021.9
20260906080518 59 37 0.9 0.9 0.00 0.00 0.00 99 1021.5
20260906080014 59 312 0.9 1.7 0.00 0.00 0.00 99 1021.8
20260906075508 59 37 1.7 1.7 0.00 0.00 0.00 99 1021.6
20260906075002 59 31 1.7 1.7 0.00 0.00 0.00 99 1021.5
20260906074457 60 353 0.9 1.7 0.00 0.00 0.00 99 1022.0
20260906073955 60 9 0.0 1.7 0.00 0.00 0.00 99 1021.9
20260906073450 60 42 0.9 2.6 0.00 0.00 0.00 99 1021.6
20260906072947 60 19 1.7 4.3 0.00 0.00 0.00 99 1021.7
20260906072442 60 37 1.7 2.6 0.00 0.00 0.00 99 1021.7
20260906071938 60 22 1.7 2.6 0.00 0.00 0.00 99 1021.9
20260906071433 59 36 1.7 2.6 0.00 0.00 0.00 99 1021.9
20260906070929 59 290 0.9 0.9 0.00 0.00 0.00 99 1021.7
20260906070425 59 27 0.9 1.7 0.00 0.00 0.00 99 1021.5
20260906065921 59 296 0.9 0.9 0.00 0.00 0.00 99 1021.8
20260906065415 59 292 0.0 0.9 0.00 0.00 0.00 99 1021.7
20260906064911 59 337 0.0 0.9 0.00 0.00 0.00 99 1021.6
20260906064407 58 267 0.0 0.0 0.00 0.00 0.00 99 1021.8
20260906063907 58 264 0.0 0.0 0.00 0.00 0.00 99 1021.7
20260906063402 59 261 0.0 0.0 0.00 0.00 0.00 99 1021.6
20260906062857 59 266 0.0 0.0 0.00 0.00 0.00 99 1021.8
20260906062356 59 261 0.0 0.0 0.00 0.00 0.00 99 1021.6
20260906061852 59 263 0.0 0.0 0.00 0.00 0.00 99 1021.5
20260906061348 59 265 0.0 0.0 0.00 0.00 0.00 99 1021.5
20260906060842 58 276 0.0 0.0 0.00 0.00 0.00 99 1021.5
20260906060340 58 259 0.0 0.0 0.00 0.00 0.00 99 1021.4
20260906055836 59 259 0.0 0.0 0.00 0.00 0.00 99 1021.4
20260906055331 59 263 0.0 0.0 0.00 0.00 0.00 99 1021.5
20260906054826 59 287 0.0 0.9 0.00 0.00 0.00 99 1021.5
20260906054321 59 263 0.0 0.0 0.00 0.00 0.00 99 1021.5
20260906053818 59 262 0.0 0.0 0.00 0.00 0.00 99 1021.7
20260906053313 59 262 0.0 0.0 0.00 0.00 0.00 99 1021.5
20260906052808 59 263 0.0 0.0 0.00 0.00 0.00 99 1021.4
20260906052306 59 263 0.0 0.0 0.00 0.00 0.00 99 1021.3
20260906051802 59 263 0.0 0.0 0.00 0.00 0.00 99 1021.3
20260906051301 60 264 0.0 0.0 0.00 0.00 0.00 98 1021.1
20260906050756 60 271 0.0 0.9 0.00 0.00 0.00 99 1021.1
20260906050252 60 275 0.0 0.9 0.00 0.00 0.00 98 1021.1
20260906045750 60 336 0.9 0.9 0.00 0.00 0.00 98 1021.0
20260906045245 60 271 0.0 0.0 0.00 0.00 0.00 98 1020.7
20260906044741 60 255 0.0 0.0 0.00 0.00 0.00 98 1020.8
20260906044236 60 256 0.0 0.0 0.00 0.00 0.00 98 1020.8
20260906043732 60 256 0.0 0.0 0.00 0.00 0.00 98 1021.0
20260906043228 60 257 0.0 0.0 0.00 0.00 0.00 98 1020.7
20260906042727 60 257 0.0 0.0 0.00 0.00 0.00 98 1020.6
20260906042226 61 257 0.0 0.0 0.00 0.00 0.00 98 1020.8
20260906041722 61 259 0.0 0.0 0.00 0.00 0.00 98 1020.9
20260906041217 61 238 0.0 0.0 0.00 0.00 0.00 98 1020.7
20260906040713 62 268 0.0 0.9 0.00 0.00 0.00 98 1020.6
20260906040208 62 56 0.9 2.6 0.00 0.00 0.00 97 1020.7
20260906035703 62 335 0.9 1.7 0.00 0.00 0.00 97 1020.8
20260906035159 62 284 0.0 0.9 0.00 0.00 0.00 97 1020.8
20260906034653 62 321 0.9 0.9 0.00 0.00 0.00 97 1020.7
20260906034148 62 310 0.9 0.9 0.00 0.00 0.00 97 1020.7
20260906033643 62 274 0.0 0.9 0.00 0.00 0.00 96 1020.6
20260906033138 62 301 0.0 0.9 0.00 0.00 0.00 96 1020.6
20260906032635 63 266 0.0 0.0 0.00 0.00 0.00 96 1020.6
20260906032134 63 270 0.0 0.0 0.00 0.00 0.00 96 1020.8
20260906031630 63 268 0.0 0.0 0.00 0.00 0.00 95 1020.8
20260906031125 63 266 0.0 0.9 0.00 0.00 0.00 95 1020.5
20260906030624 63 262 0.0 0.0 0.00 0.00 0.00 94 1020.7
20260906030120 64 262 0.0 0.0 0.00 0.00 0.00 94 1020.4
20260906025619 64 262 0.0 0.0 0.00 0.00 0.00 93 1020.6
20260906025118 65 262 0.0 0.0 0.00 0.00 0.00 93 1020.5
20260906024613 66 268 0.0 0.0 0.00 0.00 0.00 92 1020.6
20260906024107 66 271 0.0 0.9 0.00 0.00 0.00 92 1020.6
20260906023603 66 351 0.9 0.9 0.00 0.00 0.00 91 1020.4
20260906023057 66 24 0.9 0.9 0.00 0.00 0.00 91 1020.4
20260906022553 67 56 0.9 0.9 0.00 0.00 0.00 91 1020.3
20260906022048 67 69 0.9 1.7 0.00 0.00 0.00 90 1020.5
20260906021544 67 59 0.9 1.7 0.00 0.00 0.00 90 1020.3
20260906021042 67 32 0.9 1.7 0.00 0.00 0.00 90 1020.5
20260906020537 67 56 0.0 0.9 0.00 0.00 0.00 89 1020.4
20260906020037 67 46 0.9 2.6 0.00 0.00 0.00 89 1020.4
20260906015536 68 48 0.9 1.7 0.00 0.00 0.00 89 1020.4
20260906015035 68 110 1.7 1.7 0.00 0.00 0.00 89 1020.5
20260906014531 68 37 0.9 2.6 0.00 0.00 0.00 88 1020.2
20260906014026 68 34 1.7 1.7 0.00 0.00 0.00 88 1020.1
20260906013521 68 345 0.9 1.7 0.00 0.00 0.00 88 1020.2
20260906013017 68 20 0.9 1.7 0.00 0.00 0.00 88 1020.2
20260906012512 68 71 0.9 2.6 0.00 0.00 0.00 88 1020.1
20260906012011 68 67 2.6 2.6 0.00 0.00 0.00 88 1020.1
20260906011508 68 57 0.9 1.7 0.00 0.00 0.00 88 1020.0
20260906011002 68 49 1.7 2.6 0.00 0.00 0.00 88 1020.0
20260906010457 68 69 1.7 2.6 0.00 0.00 0.00 87 1020.1
20260906005954 68 56 1.7 2.6 0.00 0.00 0.00 88 1020.0
20260906005453 68 70 1.7 1.7 0.00 0.00 0.00 88 1019.9
20260906004951 68 329 0.9 1.7 0.00 0.00 0.00 89 1020.0
20260906004446 68 342 0.0 0.9 0.00 0.00 0.00 91 1019.9
20260906003941 68 279 0.0 0.9 0.00 0.00 0.00 92 1019.8
20260906003442 69 322 0.9 0.9 0.00 0.00 0.00 91 1019.9
20260906002937 69 94 0.0 0.9 0.00 0.00 0.00 89 1019.8
20260906002437 70 91 0.0 0.9 0.00 0.00 0.00 86 1019.8
20260906001932 70 52 0.0 0.9 0.00 0.00 0.00 86 1019.7
20260906001428 70 99 0.9 1.7 0.00 0.00 0.00 86 1019.8
20260906000923 70 199 0.0 0.9 0.00 0.00 0.00 86 1019.9
20260906000418 71 180 0.0 0.9 0.00 0.00 0.00 85 1020.1
20260905235913 71 191 0.0 0.9 0.00 0.00 0.00 85 1020.3
20260905235407 71 134 0.9 0.9 0.00 0.00 0.00 84 1020.1
20260905234902 71 176 0.9 0.9 0.00 0.00 0.00 84 1020.1
20260905234357 72 78 0.9 1.7 0.00 0.00 0.00 84 1019.8
20260905233852 72 186 0.9 1.7 0.00 0.00 0.00 85 1019.8
20260905233347 72 124 0.9 1.7 0.00 0.00 0.00 84 1019.9
20260905232847 72 48 2.6 4.3 0.00 0.00 0.00 83 1020.0
20260905232343 73 68 0.9 2.6 0.00 0.00 0.00 82 1020.4
20260905231838 73 101 1.7 2.6 0.00 0.00 0.00 82 1020.4
20260905231339 73 43 0.9 2.6 0.00 0.00 0.00 83 1020.2
20260905230836 73 58 0.9 1.7 0.00 0.00 0.00 84 1020.4
20260905230333 73 269 0.0 0.0 0.00 0.00 0.00 83 1020.5
20260905225832 74 43 0.9 1.7 0.00 0.00 0.00 82 1020.3
20260905225328 73 70 0.0 1.7 0.00 0.00 0.00 82 1020.4
20260905224828 73 312 0.0 2.6 0.00 0.00 0.00 83 1020.1
20260905224323 73 22 2.6 2.6 0.00 0.00 0.00 85 1020.2
20260905223818 73 83 1.7 4.3 0.00 0.00 0.00 85 1020.2
20260905223316 73 107 0.9 6.1 0.00 0.00 0.00 84 1020.0
20260905222811 74 25 0.9 2.6 0.00 0.00 0.00 84 1019.8
20260905222310 74 74 0.9 6.1 0.00 0.00 0.00 85 1019.6
20260905221806 74 85 2.6 7.0 0.00 0.00 0.00 86 1019.6
20260905221303 74 45 2.6 5.2 0.00 0.00 0.00 87 1019.9
20260905220758 75 58 1.7 2.6 0.00 0.00 0.00 86 1020.0
20260905220254 74 65 3.5 5.2 0.00 0.00 0.00 87 1019.6
20260905215753 73 51 0.9 4.3 0.00 0.00 0.00 88 1019.8
20260905215249 73 30 3.5 5.2 0.00 0.00 0.00 88 1019.8
20260905214744 73 44 1.7 4.3 0.00 0.00 0.00 88 1019.9
20260905214240 74 8 2.6 7.0 0.00 0.00 0.00 87 1020.0
20260905213735 74 305 1.7 2.6 0.00 0.00 0.00 87 1019.9
20260905213231 75 277 1.7 2.6 0.00 0.00 0.00 86 1020.1
20260905212726 75 2 1.7 2.6 0.00 0.00 0.00 81 1020.0
20260905212225 76 49 1.7 2.6 0.00 0.00 0.00 80 1019.9
20260905211725 75 48 2.6 4.3 0.00 0.00 0.00 81 1019.9
20260905211221 75 104 0.9 2.6 0.00 0.00 0.00 81 1020.2
20260905210717 75 67 0.9 1.7 0.00 0.00 0.00 81 1019.7
20260905210212 75 4 1.7 2.6 0.00 0.00 0.00 82 1020.0
20260905205711 75 27 2.6 4.3 0.00 0.00 0.00 81 1020.2
20260905205211 76 14 2.6 4.3 0.00 0.00 0.00 81 1020.1
20260905204710 77 19 0.9 0.9 0.00 0.00 0.00 80 1020.1
20260905204206 75 266 0.9 0.9 0.00 0.00 0.00 81 1020.1
20260905203700 75 283 0.0 1.7 0.00 0.00 0.00 81 1019.8
20260905203155 75 25 0.9 2.6 0.00 0.00 0.00 81 1020.1
20260905202650 75 89 2.6 4.3 0.00 0.00 0.00 82 1019.9
20260905202146 74 8 0.9 2.6 0.00 0.00 0.00 83 1019.8
20260905201641 74 48 2.6 6.1 0.00 0.00 0.00 85 1020.0
20260905201136 74 26 2.6 6.1 0.00 0.00 0.00 85 1020.3
20260905200631 74 53 2.6 4.3 0.00 0.00 0.00 85 1019.9
20260905200127 73 50 3.5 6.1 0.00 0.00 0.00 86 1020.2
20260905195625 73 43 6.1 7.0 0.00 0.00 0.00 86 1020.1
20260905195120 73 58 1.7 5.2 0.00 0.00 0.00 87 1020.2
20260905194621 74 39 3.5 7.0 0.00 0.00 0.00 86 1020.1
20260905194120 73 86 0.9 6.1 0.00 0.00 0.00 86 1020.2
20260905193615 74 24 4.3 7.0 0.00 0.00 0.00 85 1019.9
20260905193110 73 0 3.5 6.1 0.00 0.00 0.00 86 1020.0
20260905192605 74 50 2.6 7.0 0.00 0.00 0.00 86 1019.9
20260905192102 74 78 4.3 5.2 0.00 0.00 0.00 86 1020.0
20260905191600 74 9 1.7 5.2 0.00 0.00 0.00 86 1020.2
20260905191059 74 20 5.2 7.0 0.00 0.00 0.00 86 1020.1
20260905190557 74 40 2.6 5.2 0.00 0.00 0.00 87 1020.0
20260905190056 73 46 3.5 7.0 0.00 0.00 0.00 87 1019.9
20260905185556 73 23 4.3 7.0 0.00 0.00 0.00 88 1020.0
20260905185050 73 39 0.9 6.1 0.00 0.00 0.00 88 1020.0
20260905184545 74 340 2.6 7.0 0.00 0.00 0.00 87 1020.0
20260905184044 73 29 3.5 5.2 0.00 0.00 0.00 88 1019.9
20260905183543 73 39 0.9 5.2 0.00 0.00 0.00 89 1019.9
20260905183039 73 40 2.6 6.1 0.00 0.00 0.00 89 1020.1
20260905182539 73 23 2.6 5.2 0.00 0.00 0.00 88 1020.3
20260905182038 73 46 1.7 5.2 0.00 0.00 0.00 88 1020.3
20260905181533 73 49 2.6 5.2 0.00 0.00 0.00 88 1020.4
20260905181032 73 59 0.9 7.0 0.00 0.00 0.00 88 1020.2
20260905180527 73 354 5.2 7.0 0.00 0.00 0.00 87 1020.2
20260905180023 73 357 1.7 2.6 0.00 0.00 0.00 88 1020.3
20260905175522 73 52 1.7 5.2 0.00 0.00 0.00 88 1020.1
20260905175018 73 21 2.6 5.2 0.00 0.00 0.00 88 1020.2
20260905174513 73 34 2.6 2.6 0.00 0.00 0.00 88 1020.1
20260905174009 72 29 3.5 5.2 0.00 0.00 0.00 89 1020.0
20260905173504 71 55 2.6 6.1 0.00 0.00 0.00 90 1019.9
20260905173000 71 92 2.6 6.1 0.00 0.00 0.00 90 1020.1
20260905172458 71 47 2.6 6.1 0.00 0.00 0.00 90 1020.0
20260905171954 72 23 4.3 5.2 0.00 0.00 0.00 90 1020.1
20260905171450 71 81 3.5 5.2 0.00 0.00 0.00 91 1020.1
20260905170946 71 53 2.6 5.2 0.00 0.00 0.00 91 1020.0
20260905170442 71 40 2.6 5.2 0.00 0.00 0.00 91 1020.3
20260905165941 71 105 3.5 5.2 0.00 0.00 0.00 91 1020.3
20260905165437 71 76 1.7 5.2 0.00 0.00 0.00 91 1020.3
20260905164932 71 82 0.0 5.2 0.00 0.00 0.00 91 1020.4
20260905164426 71 113 1.7 2.6 0.00 0.00 0.00 91 1020.4
20260905163921 71 52 2.6 6.1 0.00 0.00 0.00 91 1020.5
20260905163418 71 33 2.6 6.1 0.00 0.00 0.00 92 1020.3
20260905162913 71 70 3.5 5.2 0.00 0.00 0.00 92 1020.4
20260905162408 71 64 4.3 6.1 0.00 0.00 0.00 91 1020.3
20260905161903 71 73 2.6 4.3 0.00 0.00 0.00 91 1020.4